TimeEST,TemperatureF,Dew PointF,Humidity,Sea Level PressureIn,VisibilityMPH,Wind Direction,Wind SpeedMPH,Gust SpeedMPH,PrecipitationIn,Events,Conditions,WindDirDegrees,DateUTC
12:04 AM,21.2,15.8,80,29.92,6.0,West,9.2,-,0.00,Snow,Light Snow,270,2013-03-04 05:04:00
12:53 AM,21.0,15.1,78,29.99,10.0,West,10.4,-,0.00,,Overcast,260,2013-03-04 05:53:00
1:53 AM,21.0,15.1,78,29.99,7.0,West,10.4,-,0.00,Snow,Light Snow,270,2013-03-04 06:53:00
2:53 AM,21.0,15.1,78,30.00,4.0,West,11.5,-,0.00,Snow,Light Snow,260,2013-03-04 07:53:00
3:53 AM,21.0,16.0,81,30.01,4.0,West,9.2,-,0.00,Snow,Light Snow,270,2013-03-04 08:53:00
4:53 AM,21.0,15.1,78,30.02,10.0,West,9.2,-,0.00,,Overcast,280,2013-03-04 09:53:00
5:53 AM,19.0,14.0,81,30.04,10.0,West,9.2,-,0.00,,Overcast,260,2013-03-04 10:53:00
6:53 AM,19.9,14.0,78,30.05,10.0,West,10.4,-,0.00,,Overcast,270,2013-03-04 11:53:00
6:59 AM,19.4,14.0,80,29.99,10.0,West,10.4,-,0.00,,Mostly Cloudy,260,2013-03-04 11:59:00
7:25 AM,19.4,14.0,80,29.99,10.0,West,9.2,-,0.00,Snow,Light Snow,260,2013-03-04 12:25:00
7:53 AM,21.0,15.1,78,30.06,6.0,West,10.4,-,0.00,Snow,Light Snow,280,2013-03-04 12:53:00
8:53 AM,21.9,15.1,75,30.06,4.0,WNW,16.1,21.9,0.00,Snow,Light Snow,300,2013-03-04 13:53:00
9:53 AM,23.0,14.0,68,30.06,10.0,West,13.8,-,0.00,Snow,Light Snow,280,2013-03-04 14:53:00
10:31 AM,24.8,15.8,69,30.00,10.0,West,17.3,-,0.00,,Mostly Cloudy,280,2013-03-04 15:31:00
10:53 AM,24.1,15.1,69,30.06,10.0,WNW,18.4,-,0.00,,Mostly Cloudy,290,2013-03-04 15:53:00
11:53 AM,27.0,16.0,63,30.05,10.0,WNW,13.8,-,N/A,,Mostly Cloudy,290,2013-03-04 16:53:00
12:08 PM,26.6,15.8,64,30.00,10.0,WNW,13.8,24.2,N/A,,Mostly Cloudy,290,2013-03-04 17:08:00
12:53 PM,28.0,17.1,63,30.04,10.0,WNW,16.1,-,N/A,,Mostly Cloudy,300,2013-03-04 17:53:00
1:53 PM,28.9,18.0,64,30.04,10.0,WNW,13.8,-,N/A,,Mostly Cloudy,300,2013-03-04 18:53:00
2:53 PM,30.0,19.0,64,30.04,10.0,West,16.1,-,N/A,,Mostly Cloudy,270,2013-03-04 19:53:00
3:45 PM,28.4,19.4,69,29.99,10.0,West,17.3,-,N/A,,Overcast,280,2013-03-04 20:45:00
3:53 PM,28.9,19.0,67,30.05,10.0,West,18.4,-,N/A,,Overcast,280,2013-03-04 20:53:00
4:53 PM,30.0,19.9,66,30.05,10.0,WNW,16.1,-,N/A,,Overcast,300,2013-03-04 21:53:00
5:53 PM,28.9,19.9,69,30.07,10.0,WNW,16.1,-,N/A,,Overcast,290,2013-03-04 22:53:00
6:53 PM,28.0,19.9,72,30.08,10.0,West,13.8,-,N/A,,Overcast,280,2013-03-04 23:53:00
7:53 PM,28.0,19.9,72,30.09,10.0,West,11.5,-,N/A,,Overcast,280,2013-03-05 00:53:00
8:44 PM,28.4,19.4,69,30.05,10.0,West,11.5,-,N/A,,Overcast,280,2013-03-05 01:44:00
8:53 PM,28.0,21.0,75,30.10,10.0,WNW,15.0,19.6,N/A,,Overcast,300,2013-03-05 01:53:00
9:53 PM,27.0,19.0,72,30.11,10.0,NW,11.5,-,N/A,,Overcast,320,2013-03-05 02:53:00
10:53 PM,27.0,18.0,69,30.11,10.0,NW,9.2,-,N/A,,Overcast,320,2013-03-05 03:53:00
11:53 PM,25.0,17.1,72,30.12,10.0,NNW,12.7,-,N/A,,Overcast,330,2013-03-05 04:53:00